KC5LIO Fairhope AL US current weather conditions

sailwx.info

Wind from 270

Air temperature 24.4° C
Dewpoint 22.5° C

Last reported at 2019-Jul-20 12:02 UTC.
Time now 2019-Jul-20 12:18 UTC

Location: N 30°31' W 087°49'.
View on Google Maps.

See reports from other nearby stations

  
Tides and Currents Weather Stations Pressure Air Temp Water Temp Dewpoint Dewpoint Depression Visibility Wind Speed Wind Dir Waves Ship Positions
date/time (UTC)wind fromknots sea level pressurealtimeterstation pressurevisibilityair tempwater tempwave heightnotes
2019-Jul-20 12:02 270 24.4
2019-Jul-20 11:47 277 1 gusting 6 23.9
2019-Jul-20 11:32 180 0 gusting 0 23.3
2019-Jul-20 11:17 158 0 gusting 0 23.3
2019-Jul-20 11:02 221 23.3
2019-Jul-20 10:47 193 23.3
2019-Jul-20 10:32 270 22.8
2019-Jul-20 10:17 270 22.8
2019-Jul-20 10:02 243 0 gusting 0 22.8
2019-Jul-20 09:47 202 22.8
2019-Jul-20 09:32 022 0 gusting 0 22.8
2019-Jul-20 09:17 102 0 gusting 1 22.8
2019-Jul-20 09:02 315 0 gusting 1 22.8
2019-Jul-20 08:47 180 22.8
2019-Jul-20 08:32 270 0 gusting 0 22.8
2019-Jul-20 08:17 270 0 gusting 0 22.8
2019-Jul-20 08:02 022 22.8
2019-Jul-20 07:47 270 0 gusting 1 22.8
2019-Jul-20 07:32 007 1 gusting 1 22.2
2019-Jul-20 07:17 074 0 gusting 1 22.2
2019-Jul-20 07:02 058 1 gusting 1 22.2
2019-Jul-20 06:47 248 0 gusting 0 22.8
2019-Jul-20 06:32 180 22.8
2019-Jul-20 06:17 133 1 gusting 2 22.8
2019-Jul-20 06:02 174 1 gusting 2 22.8
2019-Jul-20 05:47 202 1 gusting 1 22.8
2019-Jul-20 05:32 22.8
2019-Jul-20 05:17 300 0 gusting 1 22.8
2019-Jul-20 05:02 171 0 gusting 1 22.8
2019-Jul-20 04:47 22.8
2019-Jul-20 04:32 184 0 gusting 1 22.8
2019-Jul-20 04:17 118 1 gusting 2 22.8
2019-Jul-20 04:02 100 1 gusting 2 22.8
2019-Jul-20 03:47 150 1 gusting 2 22.8
2019-Jul-20 03:32 148 1 gusting 1 22.8
2019-Jul-20 03:17 136 1 gusting 1 22.8
2019-Jul-20 03:02 270 23.3
2019-Jul-20 02:47 124 2 gusting 2 23.3
2019-Jul-20 02:32 158 1 gusting 1 23.3
2019-Jul-20 02:17 186 0 gusting 1 23.3
2019-Jul-20 02:02 144 1 gusting 1 23.3
2019-Jul-20 01:47 124 0 gusting 1 22.8
2019-Jul-20 01:32 054 1 gusting 2 22.8
2019-Jul-20 01:17 089 1 gusting 4 22.8
2019-Jul-20 01:02 034 4 gusting 6 23.3
2019-Jul-20 00:47 014 4 gusting 6 23.9
2019-Jul-20 00:32 007 2 gusting 12 24.4
2019-Jul-20 00:17 348 6 gusting 14 26.1
2019-Jul-20 00:02 056 4 gusting 13 28.3
2019-Jul-19 23:47 045 1 gusting 1 28.9
2019-Jul-19 23:32 307 29.4
2019-Jul-19 23:17 149 0 gusting 1 29.4
2019-Jul-19 23:02 202 0 gusting 2 29.4
2019-Jul-19 22:47 275 1 gusting 6 29.4
2019-Jul-19 22:32 201 1 gusting 6 30.0
2019-Jul-19 22:17 167 2 gusting 6 30.0
2019-Jul-19 22:02 173 1 gusting 5 30.0
2019-Jul-19 21:47 176 1 gusting 5 30.0
2019-Jul-19 21:32 262 2 gusting 4 30.0
2019-Jul-19 21:17 207 1 gusting 4 30.0
2019-Jul-19 21:02 210 2 gusting 5 30.0
2019-Jul-19 20:47 308 0 gusting 6 31.1
2019-Jul-19 20:32 180 6 gusting 7 31.7
2019-Jul-19 20:17 212 3 gusting 6 32.2
2019-Jul-19 20:02 185 6 gusting 7 32.8
2019-Jul-19 19:47 214 1 gusting 6 32.2
2019-Jul-19 19:32 182 3 gusting 6 32.8
2019-Jul-19 19:17 241 2 gusting 6 32.2
2019-Jul-19 19:02 201 2 gusting 6 32.2
2019-Jul-19 18:47 171 2 gusting 5 32.8
2019-Jul-19 18:32 270 1 gusting 6 33.3
2019-Jul-19 18:17 185 2 gusting 5 33.3
2019-Jul-19 18:02 125 1 gusting 4 32.8
2019-Jul-19 17:47 263 1 gusting 6 30.6
2019-Jul-19 17:32 223 3 gusting 6 32.8
2019-Jul-19 17:17 191 4 gusting 7 32.8
2019-Jul-19 17:02 136 4 gusting 8 31.7
2019-Jul-19 16:47 159 5 gusting 6 32.2
2019-Jul-19 16:32 215 1 gusting 5 32.8
2019-Jul-19 16:17 193 2 gusting 6 31.7
2019-Jul-19 16:02 157 5 gusting 6 31.1
2019-Jul-19 15:47 167 2 gusting 5 30.6
2019-Jul-19 15:32 129 1 gusting 2 28.9
2019-Jul-19 15:17 213 1 gusting 6 28.9
2019-Jul-19 15:02 180 0 gusting 1 28.3
2019-Jul-19 14:47 202 28.3
2019-Jul-19 14:32 238 0 gusting 1 27.8
2019-Jul-19 14:17 315 1 gusting 5 30.0
2019-Jul-19 14:02 257 1 gusting 5 32.2
2019-Jul-19 13:47 223 1 gusting 4 31.7
2019-Jul-19 13:32 306 2 gusting 5 31.1
2019-Jul-19 13:17 033 1 gusting 2 30.6
2019-Jul-19 13:02 032 2 gusting 2 30.0
2019-Jul-19 12:47 098 1 gusting 1 28.9
2019-Jul-19 12:32 077 1 gusting 1 27.8
2019-Jul-19 12:17 321 0 gusting 0 26.1
2019-Jul-19 12:02 022 25.6
2019-Jul-19 11:47 080 24.4
2019-Jul-19 11:32 313 23.3
2019-Jul-19 11:17 292 0 gusting 0 23.3
2019-Jul-19 11:02 090 0 gusting 0 23.3
2019-Jul-19 10:47 045 23.3
2019-Jul-19 10:32 026 0 gusting 1 23.3
2019-Jul-19 10:17 292 23.3
2019-Jul-19 10:02 150 1 gusting 1 23.3
2019-Jul-19 09:47 180 0 gusting 0 23.3
2019-Jul-19 09:32 180 23.3
2019-Jul-19 09:17 180 0 gusting 1 23.3
2019-Jul-19 09:02 158 0 gusting 1 23.3
2019-Jul-19 08:47 239 23.3
2019-Jul-19 08:32 045 0 gusting 0 23.3
2019-Jul-19 08:17 270 23.9
2019-Jul-19 08:02 270 0 gusting 0 23.9
2019-Jul-19 07:47 180 23.9
2019-Jul-19 07:32 194 23.9
2019-Jul-19 07:17 158 0 gusting 0 23.9
2019-Jul-19 07:02 275 23.9
2019-Jul-19 06:47 180 0 gusting 1 23.9
2019-Jul-19 06:32 163 0 gusting 0 24.4
2019-Jul-19 06:17 270 24.4
2019-Jul-19 06:02 270 0 gusting 1 24.4
2019-Jul-19 05:47 022 0 gusting 0 24.4
2019-Jul-19 05:32 292 24.4
2019-Jul-19 05:17 192 24.4
2019-Jul-19 05:02 180 0 gusting 1 24.4
2019-Jul-19 04:47 151 25.0
2019-Jul-19 04:32 196 0 gusting 0 25.0
2019-Jul-19 04:17 277 0 gusting 0 25.0
2019-Jul-19 04:02 270 0 gusting 0 25.0
2019-Jul-19 03:47 270 0 gusting 0 25.6
2019-Jul-19 03:32 229 25.6
2019-Jul-19 03:17 180 25.6
2019-Jul-19 03:02 191 25.6
2019-Jul-19 02:47 180 0 gusting 0 26.1
2019-Jul-19 02:32 011 26.1
2019-Jul-19 02:17 190 0 gusting 0 26.7
2019-Jul-19 02:02 248 0 gusting 0 26.7
2019-Jul-19 01:47 202 0 gusting 1 27.2
2019-Jul-19 01:32 225 27.2
2019-Jul-19 01:17 225 0 gusting 0 27.8
2019-Jul-19 01:02 202 28.3
2019-Jul-19 00:47 185 1 gusting 2 28.9
2019-Jul-19 00:32 236 1 gusting 2 29.4
2019-Jul-19 00:17 197 1 gusting 4 29.4
2019-Jul-19 00:02 211 1 gusting 5 29.4
2019-Jul-18 23:47 167 2 gusting 5 29.4
2019-Jul-18 23:32 178 1 gusting 4 30.0
2019-Jul-18 23:17 211 2 gusting 4 30.0
2019-Jul-18 23:02 193 2 gusting 5 30.0
2019-Jul-18 22:47 184 4 gusting 5 30.6
2019-Jul-18 22:32 145 3 gusting 5 31.1
2019-Jul-18 22:17 267 2 gusting 5 31.1
2019-Jul-18 22:02 281 2 gusting 7 31.7
2019-Jul-18 21:47 222 2 gusting 4 32.8
2019-Jul-18 21:32 190 4 gusting 8 31.7
2019-Jul-18 21:17 158 4 gusting 6 32.8
2019-Jul-18 21:02 148 4 gusting 7 32.8
2019-Jul-18 20:47 331 2 gusting 6 33.3
2019-Jul-18 20:32 158 5 gusting 6 32.8
2019-Jul-18 20:17 249 4 gusting 6 33.3
2019-Jul-18 20:02 220 2 gusting 7 33.3
2019-Jul-18 19:47 235 2 gusting 6 33.3
2019-Jul-18 19:32 310 2 gusting 5 32.8
2019-Jul-18 19:17 092 3 gusting 6 33.9
2019-Jul-18 19:02 180 1 gusting 6 33.9
2019-Jul-18 18:47 302 2 gusting 6 33.9
2019-Jul-18 18:32 260 2 gusting 8 34.4
2019-Jul-18 18:17 308 1 gusting 6 33.9
2019-Jul-18 18:02 257 3 gusting 6 33.9
2019-Jul-18 17:47 202 2 gusting 4 34.4
2019-Jul-18 17:32 34.4
2019-Jul-18 17:17 235 1 gusting 6 34.4
2019-Jul-18 17:02 273 1 gusting 4 33.9
2019-Jul-18 16:47 298 1 gusting 4 32.2
2019-Jul-18 16:32 006 3 gusting 5 33.3
2019-Jul-18 16:17 297 1 gusting 4 33.3
2019-Jul-18 16:02 158 2 gusting 5 32.8
2019-Jul-18 15:47 159 1 gusting 4 32.2
2019-Jul-18 15:32 286 2 gusting 5 32.8
2019-Jul-18 15:17 281 1 gusting 4 31.7
2019-Jul-18 15:02 281 2 gusting 4 32.2
2019-Jul-18 14:47 324 1 gusting 2 31.1
2019-Jul-18 14:32 270 2 gusting 4 30.6
2019-Jul-18 14:17 262 2 gusting 4 30.6
2019-Jul-18 14:02 257 1 gusting 4 28.9
2019-Jul-18 13:47 270 1 gusting 2 29.4
2019-Jul-18 13:32 288 1 gusting 4 29.4
2019-Jul-18 13:17 039 2 gusting 2 30.0
2019-Jul-18 13:02 045 1 gusting 1 29.4
2019-Jul-18 12:47 318 0 gusting 1 28.9
2019-Jul-18 12:32 270 0 gusting 0 26.7
2019-Jul-18 12:17 080 0 gusting 1 25.6
2019-Jul-18 12:02 090 0 gusting 0 25.0